Météo

Actualisé à 9h30, Lille

icon

T : 7 °C / H : 87 %
Pression : 1024 Hpa
Vent de nord : 19 Km/h

Peu de nuages à 2400 pieds
Nuages fragmentés à 5600 pieds

2024/04/21 08:30 LFQQ 210830Z AUTO 34010KT 310V010 9999 FEW024 BKN056 07/05 Q1024 TEMPO 34018G28KT 2500 SHRA SCT009 BKN014TCU

Mots clés

Internet web infographiste flyers illustrateur graphiste webmaster PAO assistance informatique logo image invitation affiche création réalisation conception site vitrine voeux carte visite publication publicité impression plaquette charte graphique identité visuelle maintenance freelance


CSS Valide ! Valid HTML 5.0

Bienvenue

Ce site a été réalisé afin de vous faire découvrir mon métier, mes compétences, mon savoir-faire et bien entendu mes services. Vous s'y trouverez également une selection de logiciels et de liens divers et variés.



Infographiste - Web Designer

Je réalise votre logo - votre charte graphique.
Je peux également réaliser votre affiche - flyer - plaquette commerciale - catalogue publicitaire - espace pub - carte d'invitation - carte de visite - carte de fidélité - pochette cd-room ou encore votre présentation cd-room - site internet - maquette d'objet publicitaire.

Si mes services vous intéressent n'hésitez pas à me contacter.